Regional Weather Roundup
Issued by NWS State College, PA

Home | Current Version | Previous Version | Text Only | Print | Product List | Glossary On
Versions: 1 2 3 4 5 6 7 8 9 10 11 12 13 14 15 16 17 18 19 20 21 22 23 24 25 26 27 28 29 30 31 32 33 34 35 36 37 38 39 40 41 42 43 44 45 46 47 48 49 50
000
ASUS41 KCTP 020103
RWRCTP

REGIONAL WEATHER ROUNDUP
NATIONAL WEATHER SERVICE STATE COLLEGE PA
900 PM EDT FRI AUG 01 2014

Note: "fair" indicates few or no clouds below 12,000 feet with no
significant weather and/or obstructions to visibility.

* = STATION THAT DOES NOT REPORT PRECIPITATION /E.G. RAIN...SNOW...ETC/
    THUNDER OR FOG.

PAZ002>004-007>009-013>016-020>023-029>032-020200-
WESTERN PENNSYLVANIA

CITY           SKY/WX    TMP DP  RH WIND       PRES   REMARKS
ERIE           PTCLDY    73  59  61 NE3       30.11S
MEADVILLE      PTCLDY    71  58  63 N3        30.13S
FRANKLIN*      PTCLDY    70  57  64 SE5       30.15S
NEW CASTLE     FAIR      73  62  68 CALM      30.12R
BEAVER COUNTY  MOCLDY    73  61  64 CALM      30.12R
BUTLER*        CLEAR     68  63  83 CALM      30.14R
PITTSBURGH INT PTCLDY    74  60  61 SE7       30.11R
PITTSBURGH     CLOUDY    73  62  68 CALM      30.11R
INDIANA*       PTCLDY    72  59  64 SE6       30.19R
LATROBE        PTCLDY    72  63  73 VRB5      30.13S
WASHINGTON CO* CLOUDY    70  63  78 CALM      30.12R
$$

PAZ004>006-010>012-017>019-024>028-033>037-041-042-045-046-049>053-020200-
CENTRAL PENNSYLVANIA

CITY           SKY/WX    TMP DP  RH WIND       PRES   REMARKS
BRADFORD       PTCLDY    67  59  75 CALM      30.17S
DUBOIS         LGT RAIN  71  63  75 SW3       30.17R
CLEARFIELD     MOCLDY    71  63  75 CALM      30.17R
JOHNSTOWN      PTCLDY    65  59  81 SE7       30.18R
ALTOONA        MOCLDY    69  61  75 S5        30.18R
STATE COLLEGE  PTCLDY    72  63  73 CALM      30.17R
WILLIAMSPORT   MOCLDY    72  63  73 E9        30.15R
SELINSGROVE    CLOUDY    67  65  93 CALM      30.17R
FT INDIANTOWN  CLOUDY    69  69 100 E6        30.18R
CAPITAL CITY   CLOUDY    72  67  84 SE3       30.16S
HARRISBURG     CLOUDY    73  66  78 E9        30.15S
YORK           CLOUDY    72  62  71 CALM      30.16S
$$

PAZ038>040-043-044-047-048-054-055-060>062-067>071-020200-
EASTERN PENNSYLVANIA

CITY           SKY/WX    TMP DP  RH WIND       PRES   REMARKS
SCRANTON       CLOUDY    71  60  68 CALM      30.19S
MOUNT POCONO   CLOUDY    64  32  30 E3        30.24S
ALLENTOWN      CLOUDY    69  64  84 E6        30.18F
QUAKERTOWN*    CLOUDY    68  66  94 CALM      30.20F
READING        CLOUDY    69  66  90 CALM      30.17S
LANCASTER      CLOUDY    67  65  93 E5        30.18S FOG
COATESVILLE    CLOUDY    66  66 100 CALM      30.20S FOG
POTTSTOWN      CLOUDY    69  66  90 CALM      30.20S
BLUE BELL      MOCLDY    70  68  94 CALM      30.18S
DOYLESTOWN     CLOUDY    67  67 100 CALM      30.19S
WILLOW GROVE   NOT AVBL
NORTH PHILA    MOCLDY    71  66  84 E5        30.19F
PHILADELPHIA   MOCLDY    72  68  87 SE5       30.18F
$$


USA.gov is the U.S. government's official web portal to all federal, state and local government web resources and services.